This demonstration page uses our WeatherBlox Daily Observations layout. Learn more.

Left ArrowRight Arrow

36.17497, -115.13722

Hourly Observations for May 19, 2016

Temp ( °F °C ) Dew Point ( °F °C ) Humidity (%) Winds ( mph kmh ) Pressure ( in mb ) Visibility ( mi km ) Precip ( " mm )
12:53 am 00:53 Clear 72 22.2 43 6.1 35 35 N N/A 29.85 1011 10 16 N/A
1:53 am 01:53 Clear 71 21.7 44 6.7 38 38 N N/A 29.84 1011 10 16 N/A
2:53 am 02:53 Clear 68 20 43 6.1 40 40 N N/A 29.83 1010 10 16 N/A
3:53 am 03:53 Clear 67 19.4 42 5.6 41 41 N 5 7 29.83 1010 10 16 N/A
4:53 am 04:53 Clear 67 19.4 41 5 39 39 NNE 5 7 29.82 1010 10 16 N/A
5:53 am 05:53 Sunny 66 18.9 41 5 40 40 N 6 9 29.83 1010 10 16 N/A
6:53 am 06:53 Sunny 69 20.6 43 6.1 39 39 N 5 7 29.83 1010 10 16 N/A
7:53 am 07:53 Sunny 74 23.3 40 4.4 29 29 ESE 3 6 29.83 1010 10 16 N/A
8:53 am 08:53 Sunny 77 25 39 3.9 26 26 SSE 8 13 29.81 1010 10 16 N/A
9:53 am 09:53 Sunny 80 26.7 40 4.4 24 24 ESE 8 13 29.80 1009 10 16 N/A
10:53 am 10:53 Sunny 84 28.9 39 3.9 20 20 VRB 3 6 29.77 1008 10 16 N/A
11:53 am 11:53 Sunny 89 31.7 36 2.2 15 15 S 12 19 29.73 1007 10 16 N/A
12:53 pm 12:53 Sunny 91 32.8 33 0.6 13 13 S 16 26 29.70 1006 10 16 N/A
1:53 pm 13:53 Sunny 92 33.3 32 undefined 12 12 SW 14 22 29.67 1005 10 16 N/A
2:53 pm 14:53 Sunny 93 33.9 30 -1.1 10 10 WSW 21 33 29.64 1004 10 16 N/A
3:53 pm 15:53 Sunny 93 33.9 29 -1.7 10 10 SW 21 33 29.61 1003 10 16 N/A
4:53 pm 16:53 Sunny 93 33.9 30 -1.1 10 10 SW 25 41 29.57 1001 10 16 N/A
5:53 pm 17:53 Sunny 92 33.3 32 undefined 12 12 SW 25 41 29.53 1000 10 16 N/A
6:53 pm 18:53 Sunny 91 32.8 30 -1.1 11 11 SW 26 43 29.52 1000 10 16 N/A
7:53 pm 19:53 Clear 88 31.1 32 undefined 13 13 SW 23 37 29.51 999 10 16 N/A
8:53 pm 20:53 Clear 86 30 33 0.6 15 15 SW 25 41 29.52 1000 10 16 N/A
9:53 pm 21:53 Clear 84 28.9 35 1.7 17 17 SW 24 39 29.54 1001 10 16 N/A
10:53 pm 22:53 Clear 81 27.2 37 2.8 21 21 SW 23 37 29.56 1001 10 16 N/A
11:53 pm 23:53 Clear 80 26.7 36 2.2 20 20 SSW 18 30 29.56 1001 10 16 N/A

Powered by AerisWeather